Year,Month,Day,Hour,Minute,Value (Times are PST for temperature in C)
2017,12,15,00,00,6.10
2017,12,15,00,01,6.10
2017,12,15,00,02,6.10
2017,12,15,00,03,6.10
2017,12,15,00,04,6.10
2017,12,15,00,05,6.20
2017,12,15,00,06,6.20
2017,12,15,00,07,6.20
2017,12,15,00,08,6.20
2017,12,15,00,09,6.20
2017,12,15,00,10,6.20
2017,12,15,00,11,6.20
2017,12,15,00,12,6.20
2017,12,15,00,13,6.20
2017,12,15,00,14,6.20
2017,12,15,00,15,6.20
2017,12,15,00,16,6.20
2017,12,15,00,17,6.20
2017,12,15,00,18,6.20
2017,12,15,00,19,6.20
2017,12,15,00,20,6.20
2017,12,15,00,21,6.30
2017,12,15,00,22,6.20
2017,12,15,00,23,6.20
2017,12,15,00,24,6.10
2017,12,15,00,25,6.10
2017,12,15,00,26,6.00
2017,12,15,00,27,5.90
2017,12,15,00,28,5.90
2017,12,15,00,29,5.80
2017,12,15,00,30,5.80
2017,12,15,00,31,5.80
2017,12,15,00,32,5.80
2017,12,15,00,33,5.80
2017,12,15,00,34,5.80
2017,12,15,00,35,5.90
2017,12,15,00,36,5.90
2017,12,15,00,37,6.00
2017,12,15,00,38,6.00
2017,12,15,00,39,6.00
2017,12,15,00,40,6.00
2017,12,15,00,41,6.10
2017,12,15,00,42,6.00
2017,12,15,00,43,6.00
2017,12,15,00,44,6.00
2017,12,15,00,45,5.90
2017,12,15,00,46,5.90
2017,12,15,00,47,5.90
2017,12,15,00,48,5.80
2017,12,15,00,49,5.80
2017,12,15,00,50,5.80
2017,12,15,00,51,5.80
2017,12,15,00,52,5.80
2017,12,15,00,53,5.80
2017,12,15,00,54,5.90
2017,12,15,00,55,5.90
2017,12,15,00,56,5.90
2017,12,15,00,57,5.90
2017,12,15,00,58,5.90
2017,12,15,00,59,5.90
2017,12,15,01,00,5.90
2017,12,15,01,01,5.90
2017,12,15,01,02,5.90
2017,12,15,01,03,5.90
2017,12,15,01,04,5.90
2017,12,15,01,05,6.00
2017,12,15,01,06,6.00
2017,12,15,01,07,6.00
2017,12,15,01,08,6.10
2017,12,15,01,09,6.10
2017,12,15,01,10,6.10
2017,12,15,01,11,6.20
2017,12,15,01,12,6.20
2017,12,15,01,13,6.30
2017,12,15,01,14,6.30
2017,12,15,01,15,6.30
2017,12,15,01,16,6.40
2017,12,15,01,17,6.40
2017,12,15,01,18,6.40
2017,12,15,01,19,6.40
2017,12,15,01,20,6.40
2017,12,15,01,21,6.40
2017,12,15,01,22,6.30
2017,12,15,01,23,6.30
2017,12,15,01,24,6.30
2017,12,15,01,25,6.20
2017,12,15,01,26,6.20
2017,12,15,01,27,6.20
2017,12,15,01,28,6.20
2017,12,15,01,29,6.10
2017,12,15,01,30,6.10
2017,12,15,01,31,6.00
2017,12,15,01,32,6.00
2017,12,15,01,33,6.00
2017,12,15,01,34,6.00
2017,12,15,01,35,6.00
2017,12,15,01,36,6.00
2017,12,15,01,37,6.00
2017,12,15,01,38,5.90
2017,12,15,01,39,5.90
2017,12,15,01,40,5.90
2017,12,15,01,41,5.90
2017,12,15,01,42,5.90
2017,12,15,01,43,5.90
2017,12,15,01,44,5.90
2017,12,15,01,45,5.90
2017,12,15,01,46,5.90
2017,12,15,01,47,5.90
2017,12,15,01,48,5.90
2017,12,15,01,49,5.90
2017,12,15,01,50,5.90
2017,12,15,01,51,5.90
2017,12,15,01,52,6.00
2017,12,15,01,53,6.00
2017,12,15,01,54,6.00
2017,12,15,01,55,6.00
2017,12,15,01,56,6.00
2017,12,15,01,57,6.00
2017,12,15,01,58,6.10
2017,12,15,01,59,6.10
2017,12,15,02,00,6.10
2017,12,15,02,01,6.10
2017,12,15,02,02,6.10
2017,12,15,02,03,6.10
2017,12,15,02,04,6.10
2017,12,15,02,05,6.10
2017,12,15,02,06,6.10
2017,12,15,02,07,6.10
2017,12,15,02,08,6.10
2017,12,15,02,09,6.10
2017,12,15,02,10,6.10
2017,12,15,02,11,6.10
2017,12,15,02,12,6.10
2017,12,15,02,13,6.10
2017,12,15,02,14,6.10
2017,12,15,02,15,6.10
2017,12,15,02,16,6.10
2017,12,15,02,17,6.10
2017,12,15,02,18,6.10
2017,12,15,02,19,6.10
2017,12,15,02,20,6.10
2017,12,15,02,21,6.10
2017,12,15,02,22,6.10
2017,12,15,02,23,6.10
2017,12,15,02,24,6.10
2017,12,15,02,25,6.10
2017,12,15,02,26,6.10
2017,12,15,02,27,6.10
2017,12,15,02,28,6.10
2017,12,15,02,29,6.10
2017,12,15,02,30,6.20
2017,12,15,02,31,6.20
2017,12,15,02,32,6.20
2017,12,15,02,33,6.20
2017,12,15,02,34,6.20
2017,12,15,02,35,6.20
2017,12,15,02,36,6.20
2017,12,15,02,37,6.20
2017,12,15,02,38,6.20
2017,12,15,02,39,6.20
2017,12,15,02,40,6.20
2017,12,15,02,41,6.20
2017,12,15,02,42,6.20
2017,12,15,02,43,6.30
2017,12,15,02,44,6.30
2017,12,15,02,45,6.30
2017,12,15,02,46,6.30
2017,12,15,02,47,6.30
2017,12,15,02,48,6.20
2017,12,15,02,49,6.20
2017,12,15,02,50,6.20
2017,12,15,02,51,6.20
2017,12,15,02,52,6.20
2017,12,15,02,53,6.20
2017,12,15,02,54,6.20
2017,12,15,02,55,6.20
2017,12,15,02,56,6.20
2017,12,15,02,57,6.20
2017,12,15,02,58,6.20
2017,12,15,02,59,6.20
2017,12,15,03,00,6.20
2017,12,15,03,01,6.20
2017,12,15,03,02,6.20
2017,12,15,03,03,6.20
2017,12,15,03,04,6.20
2017,12,15,03,05,6.20
2017,12,15,03,06,6.20
2017,12,15,03,07,6.20
2017,12,15,03,08,6.10
2017,12,15,03,09,6.10
2017,12,15,03,10,6.10
2017,12,15,03,11,6.10
2017,12,15,03,12,6.10
2017,12,15,03,13,6.10
2017,12,15,03,14,6.10
2017,12,15,03,15,6.10
2017,12,15,03,16,6.10
2017,12,15,03,17,6.10
2017,12,15,03,18,6.10
2017,12,15,03,19,6.10
2017,12,15,03,20,6.10
2017,12,15,03,21,6.10
2017,12,15,03,22,6.10
2017,12,15,03,23,6.10
2017,12,15,03,24,6.10
2017,12,15,03,25,6.10
2017,12,15,03,26,6.10
2017,12,15,03,27,6.10
2017,12,15,03,28,6.10
2017,12,15,03,29,6.10
2017,12,15,03,30,6.10
2017,12,15,03,31,6.20
2017,12,15,03,32,6.20
2017,12,15,03,33,6.20
2017,12,15,03,34,6.20
2017,12,15,03,35,6.20
2017,12,15,03,36,6.20
2017,12,15,03,37,6.30
2017,12,15,03,38,6.30
2017,12,15,03,39,6.30
2017,12,15,03,40,6.30
2017,12,15,03,41,6.30
2017,12,15,03,42,6.40
2017,12,15,03,43,6.40
2017,12,15,03,44,6.40
2017,12,15,03,45,6.40
2017,12,15,03,46,6.50
2017,12,15,03,47,6.50
2017,12,15,03,48,6.50
2017,12,15,03,49,6.50
2017,12,15,03,50,6.50
2017,12,15,03,51,6.50
2017,12,15,03,52,6.50
2017,12,15,03,53,6.50
2017,12,15,03,54,6.40
2017,12,15,03,55,6.40
2017,12,15,03,56,6.40
2017,12,15,03,57,6.40
2017,12,15,03,58,6.30
2017,12,15,03,59,6.30
2017,12,15,04,00,6.30
2017,12,15,04,01,6.30
2017,12,15,04,02,6.30
2017,12,15,04,03,6.30
2017,12,15,05,04,6.40
2017,12,15,05,05,6.40
2017,12,15,05,06,6.40
2017,12,15,05,07,6.40
2017,12,15,10,46,6.40
2017,12,15,10,47,6.40
2017,12,15,10,48,6.40
2017,12,15,10,49,6.40
2017,12,15,10,50,6.40
2017,12,15,10,51,6.40
2017,12,15,10,52,6.40
2017,12,15,10,53,6.40
2017,12,15,10,54,6.40
2017,12,15,10,55,6.40
2017,12,15,10,56,6.40
2017,12,15,10,57,6.40
2017,12,15,10,58,6.40
2017,12,15,10,59,6.40
2017,12,15,11,00,6.40
2017,12,15,11,01,6.40
2017,12,15,11,02,6.40
2017,12,15,11,03,6.40
2017,12,15,11,04,6.40
2017,12,15,11,05,6.40
2017,12,15,11,06,6.40
2017,12,15,11,07,6.40
2017,12,15,11,08,6.40
2017,12,15,11,09,6.40
2017,12,15,11,10,6.40
2017,12,15,11,11,6.40
2017,12,15,11,12,6.40
2017,12,15,11,13,6.40
2017,12,15,11,14,6.40
2017,12,15,11,15,6.40
2017,12,15,11,16,6.40
2017,12,15,11,17,6.40
2017,12,15,11,18,6.40
2017,12,15,11,19,6.40
2017,12,15,11,20,6.40
2017,12,15,11,21,6.40
2017,12,15,11,22,6.40
2017,12,15,11,23,6.40
2017,12,15,11,24,6.40
2017,12,15,11,25,6.40
2017,12,15,11,26,6.40
2017,12,15,11,27,6.40
2017,12,15,11,28,6.40
2017,12,15,11,29,6.40
2017,12,15,11,30,6.40
2017,12,15,11,31,6.40
2017,12,15,11,32,6.40
2017,12,15,11,33,6.40
2017,12,15,11,34,6.40
2017,12,15,11,35,6.40
2017,12,15,11,36,6.40
2017,12,15,11,37,6.40
2017,12,15,11,38,6.40
2017,12,15,11,39,6.40
2017,12,15,11,40,6.40
2017,12,15,11,41,6.40
2017,12,15,11,42,6.40
2017,12,15,11,43,6.40
2017,12,15,11,44,6.40
2017,12,15,11,45,6.40
2017,12,15,11,46,6.40
2017,12,15,11,47,6.50
2017,12,15,11,48,6.50
2017,12,15,11,49,6.50
2017,12,15,11,50,6.50
2017,12,15,11,51,6.50
2017,12,15,11,52,6.50
2017,12,15,11,53,6.50
2017,12,15,11,54,6.50
2017,12,15,11,55,6.50
2017,12,15,11,56,6.50
2017,12,15,11,57,6.50
2017,12,15,11,58,6.50
2017,12,15,11,59,6.50
2017,12,15,12,00,6.50
2017,12,15,12,01,6.60
2017,12,15,12,02,6.60
2017,12,15,12,03,6.60
2017,12,15,12,04,6.60
2017,12,15,12,05,6.60
2017,12,15,12,06,6.60
2017,12,15,12,07,6.60
2017,12,15,12,08,6.60
2017,12,15,12,09,6.60
2017,12,15,12,10,6.60
2017,12,15,12,11,6.60
2017,12,15,12,12,6.60
2017,12,15,12,13,6.60
2017,12,15,12,14,6.60
2017,12,15,12,15,6.60
2017,12,15,12,16,6.60
2017,12,15,12,17,6.60
2017,12,15,12,18,6.60
2017,12,15,12,19,6.60
2017,12,15,12,20,6.70
2017,12,15,12,21,6.70
2017,12,15,12,22,6.70
2017,12,15,12,23,6.60
2017,12,15,12,24,6.60
2017,12,15,12,25,6.60
2017,12,15,12,26,6.70
2017,12,15,12,27,6.70
2017,12,15,12,28,6.70
2017,12,15,12,29,6.70
2017,12,15,12,30,6.70
2017,12,15,12,31,6.70
2017,12,15,12,32,6.70
2017,12,15,12,33,6.70
2017,12,15,12,34,6.70
2017,12,15,12,35,6.70
2017,12,15,12,36,6.70
2017,12,15,12,37,6.70
2017,12,15,12,38,6.70
2017,12,15,12,39,6.70
2017,12,15,12,40,6.70
2017,12,15,12,41,6.70
2017,12,15,12,42,6.70
2017,12,15,12,43,6.70
2017,12,15,12,44,6.80
2017,12,15,12,45,6.80
2017,12,15,12,46,6.80
2017,12,15,12,47,6.80
2017,12,15,12,48,6.80
2017,12,15,12,49,6.80
2017,12,15,12,50,6.80
2017,12,15,12,51,6.80
2017,12,15,12,52,6.80
2017,12,15,12,53,6.80
2017,12,15,12,54,6.80
2017,12,15,12,55,6.80
2017,12,15,12,56,6.80
2017,12,15,12,57,6.80
2017,12,15,12,58,6.80
2017,12,15,12,59,6.80
2017,12,15,13,00,6.80
2017,12,15,13,01,6.80
2017,12,15,13,02,6.80
2017,12,15,13,03,6.90
2017,12,15,13,04,6.90
2017,12,15,13,05,6.90
2017,12,15,13,06,6.90
2017,12,15,13,07,6.90
2017,12,15,13,08,7.00
2017,12,15,13,09,7.00
2017,12,15,13,10,6.90
2017,12,15,13,11,7.00
2017,12,15,13,12,7.00
2017,12,15,13,13,7.00
2017,12,15,13,14,7.00
2017,12,15,13,15,7.00
2017,12,15,13,16,7.00
2017,12,15,13,17,7.00
2017,12,15,13,18,7.00
2017,12,15,13,19,7.00
2017,12,15,13,20,7.00
2017,12,15,13,21,7.00
2017,12,15,13,22,7.00
2017,12,15,13,23,7.00
2017,12,15,13,24,7.00
2017,12,15,13,25,7.00
2017,12,15,13,26,7.00
2017,12,15,13,27,7.10
2017,12,15,13,28,7.00
2017,12,15,13,29,7.10
2017,12,15,13,30,7.10
2017,12,15,13,31,7.10
2017,12,15,13,32,7.10
2017,12,15,13,33,7.10
2017,12,15,13,34,7.10
2017,12,15,13,35,7.10
2017,12,15,13,36,7.10
2017,12,15,13,37,7.10
2017,12,15,13,38,7.10
2017,12,15,13,39,7.10
2017,12,15,13,40,7.00
2017,12,15,13,41,7.00
2017,12,15,13,42,7.00
2017,12,15,13,43,7.00
2017,12,15,13,44,7.00
2017,12,15,13,45,7.00
2017,12,15,13,46,7.00
2017,12,15,13,47,7.00
2017,12,15,13,48,7.00
2017,12,15,13,49,7.00
2017,12,15,13,50,7.00
2017,12,15,13,51,7.00
2017,12,15,13,52,7.10
2017,12,15,13,53,7.10
2017,12,15,13,54,7.10
2017,12,15,13,55,7.10
2017,12,15,13,56,7.10
2017,12,15,13,57,7.10
2017,12,15,13,58,7.10
2017,12,15,13,59,7.10
2017,12,15,14,00,7.10
2017,12,15,14,01,7.10
2017,12,15,14,02,7.10
2017,12,15,14,03,7.10
2017,12,15,14,04,7.00
2017,12,15,14,05,7.00
2017,12,15,14,06,7.00
2017,12,15,14,07,7.00
2017,12,15,14,08,7.00
2017,12,15,14,09,7.00
2017,12,15,14,10,7.10
2017,12,15,14,11,7.10
2017,12,15,14,12,7.10
2017,12,15,14,13,7.10
2017,12,15,14,14,7.20
2017,12,15,14,15,7.20
2017,12,15,14,16,7.20
2017,12,15,14,17,7.20
2017,12,15,14,18,7.20
2017,12,15,14,19,7.20
2017,12,15,14,20,7.30
2017,12,15,14,21,7.30
2017,12,15,14,22,7.30
2017,12,15,14,23,7.30
2017,12,15,14,24,7.30
2017,12,15,14,25,7.30
2017,12,15,14,26,7.30
2017,12,15,14,27,7.30
2017,12,15,14,28,7.30
2017,12,15,14,29,7.30
2017,12,15,14,30,7.30
2017,12,15,14,31,7.30
2017,12,15,14,32,7.30
2017,12,15,14,33,7.40
2017,12,15,14,34,7.40
2017,12,15,14,35,7.40
2017,12,15,14,36,7.40
2017,12,15,14,37,7.40
2017,12,15,14,38,7.40
2017,12,15,14,39,7.40
2017,12,15,14,40,7.40
2017,12,15,14,41,7.40
2017,12,15,14,42,7.40
2017,12,15,14,43,7.40
2017,12,15,14,44,7.50
2017,12,15,14,45,7.50
2017,12,15,14,46,7.50
2017,12,15,14,47,7.60
2017,12,15,14,48,7.60
2017,12,15,14,49,7.60
2017,12,15,14,50,7.60
2017,12,15,14,51,7.60
2017,12,15,14,52,7.60
2017,12,15,14,53,7.70
2017,12,15,14,54,7.70
2017,12,15,14,55,7.70
2017,12,15,14,56,7.70
2017,12,15,14,57,7.70
2017,12,15,14,58,7.70
2017,12,15,14,59,7.70
2017,12,15,15,00,7.80
2017,12,15,15,01,7.80
2017,12,15,15,02,7.80
2017,12,15,15,03,7.80
2017,12,15,15,04,7.80
2017,12,15,15,05,7.90
2017,12,15,15,06,7.90
2017,12,15,15,07,7.90
2017,12,15,15,08,8.00
2017,12,15,15,09,8.00
2017,12,15,15,10,8.10
2017,12,15,15,11,8.10
2017,12,15,15,12,8.10
2017,12,15,15,13,8.10
2017,12,15,15,14,8.10
2017,12,15,15,15,8.00
2017,12,15,15,16,8.00
2017,12,15,15,17,7.90
2017,12,15,15,18,7.90
2017,12,15,15,19,7.90
2017,12,15,15,20,7.80
2017,12,15,15,21,7.80
2017,12,15,15,22,7.70
2017,12,15,15,23,7.70
2017,12,15,15,24,7.70
2017,12,15,15,25,7.70
2017,12,15,15,26,7.70
2017,12,15,15,27,7.60
2017,12,15,15,28,7.60
2017,12,15,15,29,7.60
2017,12,15,15,30,7.60
2017,12,15,15,31,7.60
2017,12,15,15,32,7.60
2017,12,15,15,33,7.50
2017,12,15,15,34,7.50
2017,12,15,15,35,7.50
2017,12,15,15,36,7.50
2017,12,15,15,37,7.50
2017,12,15,15,38,7.50
2017,12,15,15,39,7.50
2017,12,15,15,40,7.40
2017,12,15,15,41,7.40
2017,12,15,15,42,7.40
2017,12,15,15,43,7.40
2017,12,15,15,44,7.50
2017,12,15,15,45,7.50
2017,12,15,15,46,7.50
2017,12,15,15,47,7.50
2017,12,15,15,48,7.50
2017,12,15,15,49,7.40
2017,12,15,15,50,7.40
2017,12,15,15,51,7.40
2017,12,15,15,52,7.40
2017,12,15,15,53,7.40
2017,12,15,15,54,7.40
2017,12,15,15,55,7.40
2017,12,15,15,56,7.40
2017,12,15,15,57,7.40
2017,12,15,15,58,7.30
2017,12,15,15,59,7.30
2017,12,15,16,00,7.30
2017,12,15,16,01,7.30
2017,12,15,16,02,7.30
2017,12,15,16,03,7.30
2017,12,15,16,04,7.30
2017,12,15,16,05,7.30
2017,12,15,16,06,7.30
2017,12,15,16,07,7.30
2017,12,15,16,08,7.30
2017,12,15,16,09,7.30
2017,12,15,17,04,6.80
2017,12,15,17,05,6.80
2017,12,15,17,06,6.70
2017,12,15,17,07,6.70
2017,12,15,17,08,6.70
2017,12,15,17,09,6.70
2017,12,15,17,10,6.70
2017,12,15,17,11,6.70
2017,12,15,17,12,6.70
2017,12,15,17,13,6.70
2017,12,15,17,14,6.70
2017,12,15,17,15,6.70
2017,12,15,17,16,6.70
2017,12,15,17,17,6.70
2017,12,15,17,18,6.70
2017,12,15,17,19,6.70
2017,12,15,17,20,6.70
2017,12,15,17,21,6.70
2017,12,15,17,22,6.70
2017,12,15,17,23,6.70
2017,12,15,17,24,6.70
2017,12,15,17,25,6.70
2017,12,15,17,26,6.70
2017,12,15,17,27,6.70
2017,12,15,17,28,6.60
2017,12,15,17,29,6.60
2017,12,15,17,30,6.60
2017,12,15,17,31,6.60
2017,12,15,17,32,6.60
2017,12,15,17,33,6.60
2017,12,15,17,34,6.60
2017,12,15,17,35,6.60
2017,12,15,17,36,6.60
2017,12,15,17,37,6.60
2017,12,15,17,38,6.60
2017,12,15,17,39,6.60
2017,12,15,17,40,6.60
2017,12,15,17,41,6.60
2017,12,15,17,42,6.60
2017,12,15,17,43,6.60
2017,12,15,17,44,6.60
2017,12,15,17,45,6.60
2017,12,15,17,46,6.50
2017,12,15,17,47,6.50
2017,12,15,17,48,6.50
2017,12,15,17,49,6.50
2017,12,15,17,50,6.40
2017,12,15,17,51,6.40
2017,12,15,17,52,6.40
2017,12,15,17,53,6.40
2017,12,15,17,54,6.30
2017,12,15,17,55,6.30
2017,12,15,17,56,6.30
2017,12,15,17,57,6.30
2017,12,15,17,58,6.30
2017,12,15,17,59,6.30
2017,12,15,18,00,6.30
2017,12,15,18,01,6.30
2017,12,15,18,02,6.30
2017,12,15,18,03,6.30
2017,12,15,18,04,6.30
2017,12,15,18,05,6.30
2017,12,15,18,06,6.30
2017,12,15,18,07,6.30
2017,12,15,18,08,6.30
2017,12,15,18,09,6.30
2017,12,15,18,10,6.30
2017,12,15,18,11,6.30
2017,12,15,18,12,6.20
2017,12,15,18,13,6.20
2017,12,15,18,14,6.20
2017,12,15,18,15,6.20
2017,12,15,18,16,6.20
2017,12,15,18,17,6.10
2017,12,15,18,18,6.10
2017,12,15,18,19,6.10
2017,12,15,18,20,6.10
2017,12,15,18,21,6.10
2017,12,15,18,22,6.10
2017,12,15,18,23,6.00
2017,12,15,18,24,6.00
2017,12,15,18,25,6.00
2017,12,15,18,26,6.00
2017,12,15,18,27,5.90
2017,12,15,18,28,5.90
2017,12,15,18,29,5.90
2017,12,15,18,30,5.90
2017,12,15,18,31,5.90
2017,12,15,18,32,5.90
2017,12,15,18,33,5.90
2017,12,15,18,34,5.90
2017,12,15,18,35,5.80
2017,12,15,18,36,5.80
2017,12,15,18,37,5.80
2017,12,15,18,38,5.70
2017,12,15,18,39,5.70
2017,12,15,18,40,5.70
2017,12,15,18,41,5.70
2017,12,15,18,42,5.60
2017,12,15,18,43,5.60
2017,12,15,18,44,5.60
2017,12,15,18,45,5.60
2017,12,15,18,46,5.60
2017,12,15,18,47,5.60
2017,12,15,18,48,5.60
2017,12,15,18,49,5.60
2017,12,15,18,50,5.60
2017,12,15,18,51,5.60
2017,12,15,18,52,5.60
2017,12,15,18,53,5.50
2017,12,15,18,54,5.50
2017,12,15,18,55,5.50
2017,12,15,18,56,5.50
2017,12,15,18,57,5.50
2017,12,15,18,58,5.50
2017,12,15,18,59,5.40
2017,12,15,19,00,5.40
2017,12,15,19,01,5.40
2017,12,15,19,02,5.40
2017,12,15,19,03,5.40
2017,12,15,19,04,5.40
2017,12,15,19,05,5.30
2017,12,15,19,06,5.30
2017,12,15,19,07,5.30
2017,12,15,19,08,5.30
2017,12,15,19,09,5.30
2017,12,15,19,10,5.30
2017,12,15,19,11,5.20
2017,12,15,19,12,5.20
2017,12,15,19,13,5.30
2017,12,15,19,14,5.30
2017,12,15,19,15,5.30
2017,12,15,19,16,5.30
2017,12,15,19,17,5.30
2017,12,15,19,18,5.30
2017,12,15,19,19,5.40
2017,12,15,19,20,5.50
2017,12,15,19,21,5.70
2017,12,15,19,22,5.80
2017,12,15,19,23,5.80
2017,12,15,19,24,5.90
2017,12,15,19,25,5.90
2017,12,15,19,26,5.80
2017,12,15,19,27,5.80
2017,12,15,19,28,5.80
2017,12,15,19,29,5.80
2017,12,15,19,30,5.70
2017,12,15,19,31,5.50
2017,12,15,19,32,5.40
2017,12,15,19,33,5.30
2017,12,15,19,34,5.30
2017,12,15,19,35,5.30
2017,12,15,19,36,5.30
2017,12,15,19,37,5.30
2017,12,15,19,38,5.30
2017,12,15,19,39,5.30
2017,12,15,19,40,5.30
2017,12,15,19,41,5.30
2017,12,15,19,42,5.40
2017,12,15,19,43,5.40
2017,12,15,19,44,5.40
2017,12,15,19,45,5.40
2017,12,15,19,46,5.40
2017,12,15,19,47,5.40
2017,12,15,19,48,5.40
2017,12,15,19,49,5.40
2017,12,15,19,50,5.40
2017,12,15,19,51,5.40
2017,12,15,19,52,5.50
2017,12,15,19,53,5.50
2017,12,15,19,54,5.50
2017,12,15,19,55,5.60
2017,12,15,19,56,5.60
2017,12,15,19,57,5.60
2017,12,15,19,58,5.60
2017,12,15,19,59,5.70
2017,12,15,20,00,5.70
2017,12,15,20,01,5.70
2017,12,15,20,02,5.70
2017,12,15,20,03,5.70
2017,12,15,20,04,5.70
2017,12,15,20,05,5.70
2017,12,15,20,06,5.70
2017,12,15,20,07,5.70
2017,12,15,20,08,5.60
2017,12,15,20,09,5.60
2017,12,15,20,10,5.60
2017,12,15,20,11,5.60
2017,12,15,20,12,5.60
2017,12,15,20,13,5.60
2017,12,15,20,14,5.60
2017,12,15,20,15,5.60
2017,12,15,20,16,5.60
2017,12,15,20,17,5.60
2017,12,15,20,18,5.60
2017,12,15,20,19,5.60
2017,12,15,20,20,5.60
2017,12,15,20,21,5.60
2017,12,15,20,22,5.50
2017,12,15,20,23,5.50
2017,12,15,20,24,5.50
2017,12,15,20,25,5.50
2017,12,15,20,26,5.50
2017,12,15,20,27,5.40
2017,12,15,20,28,5.40
2017,12,15,20,29,5.40
2017,12,15,20,30,5.40
2017,12,15,20,31,5.40
2017,12,15,20,32,5.40
2017,12,15,20,33,5.30
2017,12,15,20,34,5.10
2017,12,15,20,35,5.00
2017,12,15,20,36,4.80
2017,12,15,20,37,4.60
2017,12,15,20,38,4.50
2017,12,15,20,39,4.30
2017,12,15,20,40,4.20
2017,12,15,20,41,4.20
2017,12,15,20,42,4.10
2017,12,15,20,43,4.10
2017,12,15,20,44,4.10
2017,12,15,20,45,4.10
2017,12,15,20,46,4.10
2017,12,15,20,47,4.10
2017,12,15,20,48,4.10
2017,12,15,20,49,4.00
2017,12,15,20,50,4.00
2017,12,15,20,51,4.00
2017,12,15,20,52,4.00
2017,12,15,20,53,4.00
2017,12,15,20,54,4.00
2017,12,15,20,55,4.00
2017,12,15,20,56,4.00
2017,12,15,20,57,4.00
2017,12,15,20,58,4.00
2017,12,15,20,59,4.10
2017,12,15,21,00,4.00
2017,12,15,21,01,4.10
2017,12,15,21,02,4.00
2017,12,15,21,03,4.00
2017,12,15,21,04,4.00
2017,12,15,21,05,4.00
2017,12,15,21,06,4.00
2017,12,15,21,07,3.90
2017,12,15,21,08,3.90
2017,12,15,21,09,3.90
2017,12,15,21,10,3.90
2017,12,15,21,11,3.90
2017,12,15,21,12,3.90
2017,12,15,21,13,3.80
2017,12,15,21,14,3.80
2017,12,15,21,15,3.80
2017,12,15,21,16,3.80
2017,12,15,21,17,3.80
2017,12,15,21,18,3.80
2017,12,15,21,19,3.80
2017,12,15,21,20,3.80
2017,12,15,21,21,3.80
2017,12,15,21,22,3.80
2017,12,15,21,23,3.80
2017,12,15,21,24,3.80
2017,12,15,21,25,3.80
2017,12,15,21,26,3.90
2017,12,15,21,27,3.90
2017,12,15,21,28,3.90
2017,12,15,21,29,3.90
2017,12,15,21,30,3.90
2017,12,15,21,31,3.80
2017,12,15,21,32,3.80
2017,12,15,21,33,3.80
2017,12,15,21,34,3.80
2017,12,15,21,35,3.80
2017,12,15,21,36,3.70
2017,12,15,21,37,3.80
2017,12,15,21,38,3.80
2017,12,15,21,39,3.80
2017,12,15,21,40,3.90
2017,12,15,21,41,3.90
2017,12,15,21,42,4.00
2017,12,15,21,43,4.00
2017,12,15,21,44,4.10
2017,12,15,21,45,4.10
2017,12,15,21,46,4.20
2017,12,15,21,47,4.20
2017,12,15,21,48,4.30
2017,12,15,21,49,4.30
2017,12,15,21,50,4.30
2017,12,15,21,51,4.30
2017,12,15,21,52,4.30
2017,12,15,21,53,4.30
2017,12,15,21,54,4.30
2017,12,15,21,55,4.40
2017,12,15,21,56,4.40
2017,12,15,21,57,4.50
2017,12,15,21,58,4.50
2017,12,15,21,59,4.50
2017,12,15,22,00,4.60
2017,12,15,22,01,4.60
2017,12,15,22,02,4.60
2017,12,15,22,03,4.70
2017,12,15,22,04,4.70
2017,12,15,22,05,4.70
2017,12,15,22,06,4.70
2017,12,15,22,07,4.70
2017,12,15,22,08,4.70
2017,12,15,22,09,4.70
2017,12,15,22,10,4.70
2017,12,15,22,11,4.70
2017,12,15,22,12,4.70
2017,12,15,22,13,4.70
2017,12,15,22,14,4.70
2017,12,15,22,15,4.70
2017,12,15,22,16,4.80
2017,12,15,22,17,4.80
2017,12,15,22,18,4.80
2017,12,15,22,19,4.90
2017,12,15,22,20,4.90
2017,12,15,22,21,4.90
2017,12,15,22,22,4.90
2017,12,15,22,23,4.90
2017,12,15,22,24,4.90
2017,12,15,22,25,4.90
2017,12,15,22,26,4.90
2017,12,15,22,27,4.90
2017,12,15,22,28,4.90
2017,12,15,22,29,4.90
2017,12,15,22,30,4.90
2017,12,15,22,31,4.90
2017,12,15,22,32,4.90
2017,12,15,22,33,4.90
2017,12,15,22,34,4.90
2017,12,15,22,35,4.90
2017,12,15,22,36,4.90
2017,12,15,22,37,4.90
2017,12,15,22,38,4.90
2017,12,15,22,39,4.90
2017,12,15,22,40,4.90
2017,12,15,22,41,4.90
2017,12,15,22,42,4.90
2017,12,15,22,43,4.90
2017,12,15,22,44,4.90
2017,12,15,22,45,4.90
2017,12,15,22,46,4.90
2017,12,15,22,47,4.90
2017,12,15,22,48,4.90
2017,12,15,22,49,4.90
2017,12,15,22,50,4.90
2017,12,15,22,51,4.90
2017,12,15,22,52,4.80
2017,12,15,22,53,4.80
2017,12,15,22,54,4.80
2017,12,15,22,55,4.70
2017,12,15,22,56,4.60
2017,12,15,22,57,4.60
2017,12,15,22,58,4.50
2017,12,15,22,59,4.50
2017,12,15,23,00,4.50
2017,12,15,23,01,4.40
2017,12,15,23,02,4.40
2017,12,15,23,03,4.40
2017,12,15,23,04,4.30
2017,12,15,23,05,4.30
2017,12,15,23,06,4.30
2017,12,15,23,07,4.30
2017,12,15,23,08,4.30
2017,12,15,23,09,4.30
2017,12,15,23,10,4.30
2017,12,15,23,11,4.30
2017,12,15,23,12,4.30
2017,12,15,23,13,4.30
2017,12,15,23,14,4.20
2017,12,15,23,15,4.20
2017,12,15,23,16,4.10
2017,12,15,23,17,4.00
2017,12,15,23,18,4.00
2017,12,15,23,19,3.90
2017,12,15,23,20,3.80
2017,12,15,23,21,3.80
2017,12,15,23,22,3.70
2017,12,15,23,23,3.70
2017,12,15,23,24,3.70
2017,12,15,23,25,3.60
2017,12,15,23,26,3.60
2017,12,15,23,27,3.60
2017,12,15,23,28,3.60
2017,12,15,23,29,3.60
2017,12,15,23,30,3.50
2017,12,15,23,31,3.50
2017,12,15,23,32,3.60
2017,12,15,23,33,3.60
2017,12,15,23,34,3.50
2017,12,15,23,35,3.50
2017,12,15,23,36,3.50
2017,12,15,23,37,3.50
2017,12,15,23,38,3.50
2017,12,15,23,39,3.50
2017,12,15,23,40,3.50
2017,12,15,23,41,3.40
2017,12,15,23,42,3.40
2017,12,15,23,43,3.40
2017,12,15,23,44,3.50
2017,12,15,23,45,3.50
2017,12,15,23,46,3.50
2017,12,15,23,47,3.50
2017,12,15,23,48,3.50
2017,12,15,23,49,3.50
2017,12,15,23,50,3.50
2017,12,15,23,51,3.50
2017,12,15,23,52,3.50
2017,12,15,23,53,3.60
2017,12,15,23,54,3.50
2017,12,15,23,55,3.50
2017,12,15,23,56,3.50
2017,12,15,23,57,3.40
2017,12,15,23,58,3.50
2017,12,15,23,59,3.50
